TimeCDT,TemperatureF,Dew PointF,Humidity,Sea Level PressureIn,VisibilityMPH,Wind Direction,Wind SpeedMPH,Gust SpeedMPH,PrecipitationIn,Events,Conditions,WindDirDegrees,DateUTC
12:53 AM,61.0,44.1,54,29.84,10.0,South,11.5,23.0,N/A,,Clear,170,2013-10-09 05:53:00
1:53 AM,59.0,44.1,58,29.85,10.0,SSE,12.7,21.9,N/A,,Clear,160,2013-10-09 06:53:00
2:53 AM,57.9,45.0,62,29.85,10.0,South,12.7,21.9,N/A,,Clear,170,2013-10-09 07:53:00
3:53 AM,57.0,46.0,67,29.84,10.0,SSE,15.0,23.0,N/A,,Clear,160,2013-10-09 08:53:00
4:53 AM,55.9,46.0,69,29.83,10.0,SSE,12.7,24.2,N/A,,Clear,160,2013-10-09 09:53:00
5:53 AM,55.0,46.0,72,29.84,10.0,SSE,11.5,-,N/A,,Clear,160,2013-10-09 10:53:00
6:53 AM,54.0,46.0,75,29.86,10.0,South,12.7,18.4,N/A,,Clear,170,2013-10-09 11:53:00
7:53 AM,53.1,46.0,77,29.86,10.0,South,10.4,18.4,N/A,,Clear,170,2013-10-09 12:53:00
8:53 AM,55.9,46.0,69,29.87,10.0,SSE,12.7,-,N/A,,Clear,160,2013-10-09 13:53:00
9:53 AM,60.1,46.0,60,29.88,10.0,South,17.3,25.3,N/A,,Clear,170,2013-10-09 14:53:00
10:53 AM,64.9,46.0,50,29.90,10.0,South,16.1,23.0,N/A,,Clear,170,2013-10-09 15:53:00
11:53 AM,68.0,45.0,43,29.89,10.0,South,12.7,26.5,N/A,,Clear,180,2013-10-09 16:53:00
12:53 PM,71.1,45.0,39,29.88,10.0,South,17.3,25.3,N/A,,Clear,170,2013-10-09 17:53:00
1:53 PM,75.0,46.0,36,29.85,10.0,SSE,18.4,26.5,N/A,,Clear,160,2013-10-09 18:53:00
2:53 PM,77.0,45.0,32,29.83,10.0,SSE,17.3,26.5,N/A,,Clear,160,2013-10-09 19:53:00
3:53 PM,79.0,44.1,29,29.82,10.0,SSE,18.4,27.6,N/A,,Clear,150,2013-10-09 20:53:00
4:53 PM,79.0,43.0,28,29.81,10.0,SSE,15.0,31.1,N/A,,Clear,160,2013-10-09 21:53:00
5:53 PM,78.1,43.0,29,29.82,10.0,SSE,13.8,21.9,N/A,,Clear,160,2013-10-09 22:53:00
6:53 PM,73.9,42.1,32,29.84,10.0,SSE,13.8,-,N/A,,Clear,160,2013-10-09 23:53:00
7:53 PM,71.1,42.1,35,29.86,10.0,SSE,10.4,-,N/A,,Clear,150,2013-10-10 00:53:00
8:53 PM,68.0,43.0,40,29.88,10.0,SSE,12.7,-,N/A,,Clear,160,2013-10-10 01:53:00
9:53 PM,64.9,46.0,50,29.90,10.0,SSE,10.4,-,N/A,,Clear,160,2013-10-10 02:53:00
10:53 PM,64.0,48.0,56,29.90,10.0,SSE,10.4,-,N/A,,Clear,160,2013-10-10 03:53:00
11:53 PM,63.0,48.9,60,29.90,10.0,SSE,12.7,-,N/A,,Clear,160,2013-10-10 04:53:00